Location: Écuvilly
(49.6505°N, 2.9206°E)
Time: 16:28:07
(UTC+00:00)

Cosmos 1441 Rocket - Pass Details

Date: 17 November 2025
Orbit: 424 x 447 km, 81.1° (Epoch: 12 December)

Event Time Altitude Azimuth Distance (km) Brightness Sun altitude
Rises 16:40:06 0° 345° (NNW) 2,405 6.5 -6.3°
Reaches altitude 10° 16:42:10 10° 342° (NNW) 1,536 5.6 -6.6°
Maximum altitude 16:45:28 65° 261° (W) 479 3.3 -7.1°
Drops below altitude 10° 16:48:47 10° 179° (S) 1,534 5.9 -7.6°
Sets 16:50:50 0° 176° (S) 2,402 6.8 -7.9°
